sat.trackr.live / text

‹ back to catalog

STARLINK-11309 [DTC]

NORAD 61202 · 2024-171C

PAYLOAD ACTIVE UNKNOWN

§ Identity

Operator
Country
US
Launch date
2024-09-20
Launch site
AFWTR
Launch vehicle
Mass (kg)
RCS (m²)

Purposes: comms

External: N2YO · Heavens-Above · Gunter

§ Orbital elements

Epoch: 2026-09-20T08:45:14.577984Z

Period
91.74 min
Inclination
53.1580°
Eccentricity
0.0000609
Mean motion
15.69708000 rev/d
Perigee alt
359.3 km
Apogee alt
360.1 km
Semi-major
6,737.9 km
B*
4.2546e-6
RAAN
296.6602°
Arg perigee
78.9596°
Mean anomaly
281.1490°
Rev number
11,497

§ Raw data

STARLINK-11309 [DTC]1 61202U 24171C   26263.36475206 -.00000072  00000+0  42546-5 0  99932 61202  53.1580 296.6602 0000609  78.9596 281.1490 15.69708000114978

JSON: /api/v1/satellites/61202 · /tle

For live sub-satellite position, see the globe view (requires WebGL).

§ Visibility from observer

Set your observer location to see the next 7 days of passes ≥ 10°. The values pass through the URL so the page stays shareable.

No JS? Fill the form by hand. The geolocation button needs JavaScript.